Regional Weather Roundup
Issued by NWS

Home | Current Version | Previous Version | Graphics & Text | Print | Product List | Glossary On
Versions: 1 2 3 4 5 6 7 8 9 10 11 12 13 14 15 16 17 18 19 20 21 22 23 24 25 26 27 28 29 30 31 32 33 34 35 36 37 38 39 40 41 42 43 44 45 46 47 48 49 50
000
ASUS43 KLOT 270621
RWRIL

ILLINOIS REGIONAL WEATHER ROUNDUP
NATIONAL WEATHER SERVICE CHICAGO/ROMEOVILLE IL
100 AM CDT WED MAY 27 2015

NOTE: "FAIR" INDICATES FEW OR NO CLOUDS BELOW 12,000 FEET WITH NO
SIGNIFICANT WEATHER AND/OR OBSTRUCTIONS TO VISIBILITY.

* THESE STATIONS ARE NOT UNDER NWS QUALITY CONTROL. THEY ALSO MAY NOT
  REPORT WEATHER SUCH AS PRECIPITATION OR FOG.

ILZ001-002-007-009-015-016-024-270700-
NORTHWEST ILLINOIS

CITY           SKY/WX    TMP DP  RH WIND       PRES   REMARKS
MOLINE         CLEAR     65  60  84 SW8       29.85S
6HR MIN TEMP:  64; 6HR MAX TEMP:  73; 6HR PCP:  0.05;

STERLING*      PTCLDY    64  61  88 W7        29.84F
SAVANNA*       CLOUDY    65  61  86 SW7       29.83S
$$

ILZ003-004-008-010-011-017-018-270700-
NORTH CENTRAL ILLINOIS

CITY           SKY/WX    TMP DP  RH WIND       PRES   REMARKS
ROCKFORD       MOCLDY    64  60  87 SW8       29.84S
6HR MIN TEMP:  64; 6HR MAX TEMP:  71;

FREEPORT*      MOCLDY    62  61  96 SW3       29.84F
ROCHELLE*      MOCLDY    64  62  94 SW12      29.84F
DE KALB*       CLOUDY    63  60  92 SW12      29.85S
PERU*          CLOUDY    66  63  89 SW10      29.87S
$$

ILZ005-006-012>014-019>023-270700-
NORTHEAST ILLINOIS

CITY           SKY/WX    TMP DP  RH WIND       PRES   REMARKS
CHICAGO-OHARE  MOCLDY    69  61  75 SW16G23   29.84R
6HR MIN TEMP:  67; 6HR MAX TEMP:  69; 6HR PCP: TRACE;

CHICAGO-MIDWAY CLOUDY    71  62  73 S16       29.84F
6HR MIN TEMP:  70; 6HR MAX TEMP:  74; 6HR PCP:  0.01;

AURORA         MOCLDY    67  61  81 SW10      29.85S
6HR MIN TEMP:  67; 6HR MAX TEMP:  71; 6HR PCP:  0.01;

LANSING*       MOCLDY    67  59  73 SW15G21   29.87F
JOLIET*        RAIN      67  64  90 SW13G21   29.88R
WAUKEGAN       LGT RAIN  63  62  97 SW10      29.82S
6HR MIN TEMP:  63; 6HR MAX TEMP:  70; 6HR PCP:  0.16;

DUPAGE AIRPORT CLOUDY    67  62  84 SW10      29.84S
6HR MIN TEMP:  66; 6HR MAX TEMP:  71; 6HR PCP:  0.01;

KANKAKEE*      CLOUDY    68  61  79 S17G25    29.90S
WHEELING       HVY RAIN  67  62  84 W16G24    29.85R
6HR MIN TEMP:  67; 6HR MAX TEMP:  72; 6HR PCP:  0.01;

MORRIS*        LGT RAIN  65  62  90 SW16      29.86S
ROMEOVILLE*    LGT RAIN  66  62  87 SW20G26   29.86S
NORTHERLY ISL    N/A     70  60  70 S23         N/A
$$

LMZ740>746-270700-
SOUTHERN LAKE MICHIGAN

STATION/POSITION SKY/WX   TEMP    WIND        PRES    VSBY  WAVE
                          AIR SEA DIR/SP/G                  HT/PER
                          (F)     (DEG/KT/KT) (MB)    (MI)  (FT/S)
SOUTHERN BUOY              47 38  190/ 14/ 16 1010.0F         2/ 4
HARRISON CRIB              69     200/ 22/ 26   N/A
BURNHAM HARBOR             70     190/ 16/ 22   N/A
BURNS HARBOR               68     190/ 16/ 20 1012.2F
MICHIGAN CITY              69     170/ 16/ 19   N/A
MICHIGAN CITY 6N           64 52  210/ 16/ 21   N/A           2/ 3
ST. JOSEPH                 62 55  230/ 12/ 14   N/A           2/ 4
$$

ILZ025>027-034>036-040-047-049-050-058-095>099-270700-
WEST-CENTRAL ILLINOIS

CITY           SKY/WX    TMP DP  RH WIND       PRES   REMARKS
QUINCY         CLOUDY    67  64  90 W7        29.92S
GALESBURG*     PTCLDY    63  60  90 SW8       29.89S
MACOMB*        MOCLDY    66  61  84 SW7       29.92S
JACKSONVILLE*  PTCLDY    69  63  79 S6        29.93F
PITTSFIELD*    PTCLDY    70  61  72 SW9       29.93F
$$

ILZ028>032-037-038-041>044-048-051>054-059>061-270700-
CENTRAL ILLINOIS

CITY           SKY/WX    TMP DP  RH WIND       PRES   REMARKS
PONTIAC        MOCLDY    70  64  79 SW16G22   29.90S
BLOOMINGTON    PTCLDY    68  63  84 SW18      29.93S
DECATUR        CLEAR     68  60  75 S15G22    29.95F
PEORIA         MOCLDY    71  61  70 SW10      29.90R
6HR MIN TEMP:  70; 6HR MAX TEMP:  77;

LACON*         PTCLDY    65  62  92 S3        29.88S
LINCOLN*       PTCLDY    68  62  80 S5        29.90F
SPRINGFIELD    MOCLDY    70  62  76 S13       29.93F
6HR MIN TEMP:  70; 6HR MAX TEMP:  77;

TAYLORVILLE    CLEAR     64  61  88 S9        29.95F
$$

ILZ033-039-045-046-055>057-062-063-270700-
EAST-CENTRAL ILLINOIS

CITY           SKY/WX    TMP DP  RH WIND       PRES   REMARKS
CHAMPAIGN      CLEAR     67  60  78 S15       29.96S
DANVILLE*      CLEAR     66  60  79 SW16      29.93F
RANTOUL*       MOCLDY    70  62  74 SW14G22   29.94F
MATTOON        CLEAR     67  60  78 S8        29.98S
PARIS*         CLEAR     68  62  81 SW14      29.99F
$$

ILZ079-100>102-270700-
SOUTHWEST ILLINOIS

CITY           SKY/WX    TMP DP  RH WIND       PRES   REMARKS
ALTON          CLEAR     67  66  95 S9        29.97F
BELLEVILLE     CLEAR     67  64  89 S6        29.97F
CAHOKIA*       CLEAR     68  61  78 S5        29.97F
SPARTA*        CLEAR     67  64  90 S8        30.01S
$$

ILZ064>066-069>071-074>076-080>082-084>086-088>090-092>094-270700-
SOUTH-CENTRAL ILLINOIS

CITY           SKY/WX    TMP DP  RH WIND       PRES   REMARKS
CARBONDALE     CLEAR     67  62  84 SW10      30.02F
6HR MIN TEMP:  66; 6HR MAX TEMP:  75;

CAIRO*         PTCLDY    65  63  93 CALM      30.04F
EFFINGHAM*     CLEAR     67  60  77 S6        30.01F
MARION         CLEAR     68  64  88 SW9       30.03F
MT. VERNON     CLEAR     66  61  82 S6        30.02F
CENTRALIA*     CLEAR     66  62  85 S10       30.00F
SALEM*         CLEAR     69  64  82 S9        30.00F
METROPOLIS*    CLEAR     65  64  96 SE3       30.04F
$$

ILZ067-068-072-073-078-083-087-091-270700-
SOUTHEAST ILLINOIS

CITY           SKY/WX    TMP DP  RH WIND       PRES   REMARKS
LAWRENCEVILLE  CLEAR     68  62  81 SW10      30.03S
FLORA*         CLEAR     67  62  84 S8        30.02S
FAIRFIELD*     CLEAR     67  63  86 S7        30.01F
HARRISBURG*    CLEAR     66  63  89 CALM      30.04F
ROBINSON*      CLEAR     68  61  80 SW12      30.02S
CARMI*         CLEAR     66  57  72 S8        30.02F
$$

ABBREVIATIONS USED IN REMARKS
   TC - TEMPERATURE IN CELSIUS
  WCI - WIND CHILL INDEX
   HX - HEAT INDEX
  VSB - VISIBILITY
$$




USA.gov is the U.S. government's official web portal to all federal, state and local government web resources and services.